contact:dominique.lefevre@mio.osupytheas.fr, maurice.libes@osupytheas.fr, didier.mallarino@osupytheas.fr
Project:EMSO http://www.emso-fr.org/EMSO-France
Depth: 2436.0 m
Title:EMSO Ligure Ouest : Data MII capteur MICROCAT
DateTime_Computer,Latitude,Longitude,Temperature,Conductivity,Pressure,DateTime_Instrument
DateTime_Computer,Latitude,Longitude,degC,S m-1,dbar,DateTime_Instrument
2019-10-30T00:00:36Z,42.805,6.029,13.2968,4.59992,2469.937,2019-10-30T02:01:02Z
2019-10-30T00:03:39Z,42.805,6.029,13.2973,4.59999,2469.937,2019-10-30T02:04:05Z
2019-10-30T00:06:42Z,42.805,6.029,13.2967,4.59983,2469.876,2019-10-30T02:07:09Z
2019-10-30T00:09:45Z,42.805,6.029,13.2964,4.59979,2469.923,2019-10-30T02:10:12Z
2019-10-30T00:12:49Z,42.805,6.029,13.2961,4.60002,2469.923,2019-10-30T02:13:15Z
2019-10-30T00:15:52Z,42.805,6.029,13.2961,4.59977,2469.876,2019-10-30T02:16:18Z
2019-10-30T00:18:55Z,42.805,6.029,13.2967,4.59986,2469.914,2019-10-30T02:19:21Z
2019-10-30T00:21:58Z,42.805,6.029,13.2969,4.59992,2469.9,2019-10-30T02:22:25Z
2019-10-30T00:25:01Z,42.805,6.029,13.2970,4.59979,2469.937,2019-10-30T02:25:28Z
2019-10-30T00:28:04Z,42.805,6.029,13.2966,4.59984,2469.923,2019-10-30T02:28:31Z
2019-10-30T00:31:08Z,42.805,6.029,13.2968,4.59993,2469.9,2019-10-30T02:31:34Z
2019-10-30T00:34:11Z,42.805,6.029,13.2973,4.59998,2469.923,2019-10-30T02:34:37Z
2019-10-30T00:37:14Z,42.805,6.029,13.2970,4.59999,2469.853,2019-10-30T02:37:41Z
2019-10-30T00:40:17Z,42.805,6.029,13.2976,4.60000,2469.937,2019-10-30T02:40:44Z
2019-10-30T00:43:21Z,42.805,6.029,13.2972,4.60004,2469.9,2019-10-30T02:43:47Z
2019-10-30T00:46:24Z,42.805,6.029,13.2969,4.60009,2469.9,2019-10-30T02:46:50Z
2019-10-30T00:49:27Z,42.805,6.029,13.2970,4.59997,2469.914,2019-10-30T02:49:54Z
2019-10-30T00:52:30Z,42.805,6.029,13.2989,4.59996,2469.914,2019-10-30T02:52:57Z
2019-10-30T00:55:33Z,42.805,6.029,13.2968,4.59988,2469.9,2019-10-30T02:56:00Z
2019-10-30T00:58:37Z,42.805,6.029,13.2980,4.59978,2469.9,2019-10-30T02:59:03Z
2019-10-30T01:01:40Z,42.805,6.029,13.2966,4.59991,2469.876,2019-10-30T03:02:06Z
2019-10-30T01:04:43Z,42.805,6.029,13.2966,4.59986,2469.89,2019-10-30T03:05:10Z
2019-10-30T01:07:46Z,42.805,6.029,13.2968,4.60001,2469.89,2019-10-30T03:08:13Z
2019-10-30T01:10:49Z,42.805,6.029,13.2983,4.60007,2469.923,2019-10-30T03:11:16Z
2019-10-30T01:13:53Z,42.805,6.029,13.2980,4.60009,2469.867,2019-10-30T03:14:19Z
2019-10-30T01:16:56Z,42.805,6.029,13.2976,4.60009,2469.89,2019-10-30T03:17:22Z
2019-10-30T01:19:59Z,42.805,6.029,13.2979,4.60019,2469.863,2019-10-30T03:20:26Z
2019-10-30T01:23:02Z,42.805,6.029,13.2975,4.59997,2469.914,2019-10-30T03:23:29Z
2019-10-30T01:26:05Z,42.805,6.029,13.2964,4.59998,2469.89,2019-10-30T03:26:32Z
2019-10-30T01:29:09Z,42.805,6.029,13.2967,4.59981,2469.89,2019-10-30T03:29:35Z
2019-10-30T01:32:12Z,42.805,6.029,13.2959,4.59979,2469.914,2019-10-30T03:32:38Z
2019-10-30T01:35:15Z,42.805,6.029,13.2965,4.59973,2469.914,2019-10-30T03:35:42Z
2019-10-30T01:38:18Z,42.805,6.029,13.2967,4.59975,2469.867,2019-10-30T03:38:45Z
2019-10-30T01:41:22Z,42.805,6.029,13.2964,4.59983,2469.876,2019-10-30T03:41:48Z
2019-10-30T01:44:25Z,42.805,6.029,13.2968,4.59978,2469.89,2019-10-30T03:44:51Z
2019-10-30T01:47:28Z,42.805,6.029,13.2973,4.59976,2469.914,2019-10-30T03:47:54Z
2019-10-30T01:50:31Z,42.805,6.029,13.2964,4.60005,2469.853,2019-10-30T03:50:58Z
2019-10-30T01:53:34Z,42.805,6.029,13.2971,4.60009,2469.867,2019-10-30T03:54:01Z
2019-10-30T01:56:38Z,42.805,6.029,13.2986,4.59986,2469.853,2019-10-30T03:57:04Z
2019-10-30T01:59:41Z,42.805,6.029,13.2971,4.59987,2469.83,2019-10-30T04:00:07Z
2019-10-30T02:02:44Z,42.805,6.029,13.2974,4.59982,2469.853,2019-10-30T04:03:10Z
2019-10-30T02:05:47Z,42.805,6.029,13.2970,4.59981,2469.844,2019-10-30T04:06:14Z
2019-10-30T02:08:50Z,42.805,6.029,13.2962,4.59980,2469.853,2019-10-30T04:09:17Z
2019-10-30T02:11:53Z,42.805,6.029,13.2965,4.60003,2469.89,2019-10-30T04:12:20Z
2019-10-30T02:14:57Z,42.805,6.029,13.2971,4.60003,2469.844,2019-10-30T04:15:23Z
2019-10-30T02:18:00Z,42.805,6.029,13.2962,4.59991,2469.853,2019-10-30T04:18:26Z
2019-10-30T02:21:03Z,42.805,6.029,13.2965,4.59976,2469.853,2019-10-30T04:21:30Z
2019-10-30T02:24:06Z,42.805,6.029,13.2976,4.59999,2469.853,2019-10-30T04:24:33Z
2019-10-30T02:27:09Z,42.805,6.029,13.2970,4.59987,2469.853,2019-10-30T04:27:36Z
2019-10-30T02:30:13Z,42.805,6.029,13.2961,4.59991,2469.867,2019-10-30T04:30:39Z
2019-10-30T02:33:16Z,42.805,6.029,13.2964,4.59984,2469.853,2019-10-30T04:33:42Z
2019-10-30T02:36:19Z,42.805,6.029,13.2961,4.59984,2469.863,2019-10-30T04:36:46Z
2019-10-30T02:39:22Z,42.805,6.029,13.2964,4.59983,2469.853,2019-10-30T04:39:49Z
2019-10-30T02:42:26Z,42.805,6.029,13.2966,4.59992,2469.853,2019-10-30T04:42:52Z
2019-10-30T02:45:29Z,42.805,6.029,13.2970,4.60012,2469.876,2019-10-30T04:45:55Z
2019-10-30T02:48:32Z,42.805,6.029,13.2977,4.60006,2469.844,2019-10-30T04:48:58Z
2019-10-30T02:51:35Z,42.805,6.029,13.2974,4.60014,2469.844,2019-10-30T04:52:02Z
2019-10-30T02:54:38Z,42.805,6.029,13.2963,4.59999,2469.867,2019-10-30T04:55:05Z
2019-10-30T02:57:42Z,42.805,6.029,13.2973,4.59999,2469.853,2019-10-30T04:58:08Z
2019-10-30T03:00:45Z,42.805,6.029,13.2969,4.59991,2469.83,2019-10-30T05:01:11Z
2019-10-30T03:03:48Z,42.805,6.029,13.2976,4.60017,2469.853,2019-10-30T05:04:14Z
2019-10-30T03:06:51Z,42.805,6.029,13.2974,4.59997,2469.89,2019-10-30T05:07:18Z
2019-10-30T03:09:54Z,42.805,6.029,13.2968,4.60003,2469.844,2019-10-30T05:10:21Z
2019-10-30T03:12:57Z,42.805,6.029,13.2973,4.60016,2469.821,2019-10-30T05:13:24Z
2019-10-30T03:16:01Z,42.805,6.029,13.2976,4.60038,2469.821,2019-10-30T05:16:27Z
2019-10-30T03:19:04Z,42.805,6.029,13.2981,4.60026,2469.83,2019-10-30T05:19:30Z
2019-10-30T03:22:07Z,42.805,6.029,13.2965,4.60003,2469.853,2019-10-30T05:22:34Z
2019-10-30T03:25:10Z,42.805,6.029,13.2966,4.59990,2469.83,2019-10-30T05:25:37Z
2019-10-30T03:28:14Z,42.805,6.029,13.2981,4.60019,2469.9,2019-10-30T05:28:40Z
2019-10-30T03:31:17Z,42.805,6.029,13.2971,4.60020,2469.89,2019-10-30T05:31:43Z
2019-10-30T03:34:20Z,42.805,6.029,13.2968,4.60014,2469.844,2019-10-30T05:34:46Z
2019-10-30T03:37:23Z,42.805,6.029,13.2968,4.59999,2469.853,2019-10-30T05:37:50Z
2019-10-30T03:40:26Z,42.805,6.029,13.2975,4.59999,2469.853,2019-10-30T05:40:53Z
2019-10-30T03:43:30Z,42.805,6.029,13.2976,4.60021,2469.853,2019-10-30T05:43:56Z
2019-10-30T03:46:33Z,42.805,6.029,13.2978,4.60028,2469.853,2019-10-30T05:46:59Z
2019-10-30T03:49:36Z,42.805,6.029,13.2974,4.60040,2469.9,2019-10-30T05:50:02Z
2019-10-30T03:52:39Z,42.805,6.029,13.2968,4.59992,2469.867,2019-10-30T05:53:06Z
2019-10-30T03:55:42Z,42.805,6.029,13.2973,4.59980,2469.853,2019-10-30T05:56:09Z
2019-10-30T03:58:45Z,42.805,6.029,13.2974,4.60011,2469.867,2019-10-30T05:59:12Z
2019-10-30T04:01:49Z,42.805,6.029,13.2988,4.59999,2469.853,2019-10-30T06:02:15Z
2019-10-30T04:04:52Z,42.805,6.029,13.2968,4.60003,2469.876,2019-10-30T06:05:18Z
2019-10-30T04:07:55Z,42.805,6.029,13.2964,4.60010,2469.914,2019-10-30T06:08:22Z
2019-10-30T04:10:58Z,42.805,6.029,13.2969,4.59991,2469.853,2019-10-30T06:11:25Z
2019-10-30T04:14:02Z,42.805,6.029,13.2964,4.59991,2469.89,2019-10-30T06:14:28Z
2019-10-30T04:17:05Z,42.805,6.029,13.2966,4.59990,2469.89,2019-10-30T06:17:31Z
2019-10-30T04:20:08Z,42.805,6.029,13.2972,4.60005,2469.876,2019-10-30T06:20:34Z
2019-10-30T04:23:11Z,42.805,6.029,13.2972,4.59990,2469.853,2019-10-30T06:23:38Z
2019-10-30T04:26:14Z,42.805,6.029,13.2965,4.59981,2469.876,2019-10-30T06:26:41Z
2019-10-30T04:29:17Z,42.805,6.029,13.2968,4.59996,2469.876,2019-10-30T06:29:44Z
2019-10-30T04:32:21Z,42.805,6.029,13.2967,4.59987,2469.914,2019-10-30T06:32:47Z
2019-10-30T04:35:24Z,42.805,6.029,13.2967,4.59984,2469.876,2019-10-30T06:35:51Z
2019-10-30T04:38:27Z,42.805,6.029,13.2970,4.59981,2469.89,2019-10-30T06:38:54Z
2019-10-30T04:41:30Z,42.805,6.029,13.2973,4.60003,2469.9,2019-10-30T06:41:57Z
2019-10-30T04:44:34Z,42.805,6.029,13.2977,4.60018,2469.914,2019-10-30T06:45:00Z
2019-10-30T04:47:37Z,42.805,6.029,13.2979,4.59984,2469.914,2019-10-30T06:48:03Z
2019-10-30T04:50:40Z,42.805,6.029,13.2968,4.59991,2469.909,2019-10-30T06:51:07Z
2019-10-30T04:53:43Z,42.805,6.029,13.2972,4.59995,2469.914,2019-10-30T06:54:10Z
2019-10-30T04:56:46Z,42.805,6.029,13.2971,4.60007,2469.914,2019-10-30T06:57:13Z
2019-10-30T04:59:50Z,42.805,6.029,13.2989,4.60006,2469.96,2019-10-30T07:00:16Z
2019-10-30T05:02:53Z,42.805,6.029,13.2976,4.60011,2469.96,2019-10-30T07:03:19Z
2019-10-30T05:05:56Z,42.805,6.029,13.2982,4.60014,2469.97,2019-10-30T07:06:23Z
2019-10-30T05:08:59Z,42.805,6.029,13.2974,4.59988,2469.947,2019-10-30T07:09:26Z
2019-10-30T05:12:02Z,42.805,6.029,13.2968,4.60003,2469.947,2019-10-30T07:12:29Z
2019-10-30T05:15:06Z,42.805,6.029,13.2965,4.59992,2469.947,2019-10-30T07:15:32Z
2019-10-30T05:18:09Z,42.805,6.029,13.2966,4.59986,2469.96,2019-10-30T07:18:35Z
2019-10-30T05:21:12Z,42.805,6.029,13.2979,4.60004,2469.984,2019-10-30T07:21:39Z
2019-10-30T05:24:15Z,42.805,6.029,13.2964,4.59992,2469.947,2019-10-30T07:24:42Z
2019-10-30T05:27:18Z,42.805,6.029,13.2969,4.60009,2469.947,2019-10-30T07:27:45Z
2019-10-30T05:30:22Z,42.805,6.029,13.2976,4.60001,2469.97,2019-10-30T07:30:48Z
2019-10-30T05:33:25Z,42.805,6.029,13.2987,4.60013,2470.007,2019-10-30T07:33:51Z
2019-10-30T05:36:28Z,42.805,6.029,13.2991,4.60044,2469.947,2019-10-30T07:36:54Z
2019-10-30T05:39:31Z,42.805,6.029,13.3005,4.60045,2469.97,2019-10-30T07:39:58Z
2019-10-30T05:42:34Z,42.805,6.029,13.3000,4.60042,2469.947,2019-10-30T07:43:01Z
2019-10-30T05:45:38Z,42.805,6.029,13.3021,4.60073,2469.993,2019-10-30T07:46:04Z
2019-10-30T05:48:41Z,42.805,6.029,13.3002,4.60031,2469.97,2019-10-30T07:49:07Z
2019-10-30T05:51:44Z,42.805,6.029,13.3004,4.60037,2470.007,2019-10-30T07:52:11Z
2019-10-30T05:54:47Z,42.805,6.029,13.3009,4.60023,2469.97,2019-10-30T07:55:14Z
2019-10-30T05:57:51Z,42.805,6.029,13.2991,4.60035,2469.993,2019-10-30T07:58:17Z
2019-10-30T06:00:54Z,42.805,6.029,13.3001,4.60024,2470.007,2019-10-30T08:01:20Z
2019-10-30T06:03:57Z,42.805,6.029,13.3000,4.60032,2470.021,2019-10-30T08:04:23Z
2019-10-30T06:07:00Z,42.805,6.029,13.2997,4.60044,2469.993,2019-10-30T08:07:27Z
2019-10-30T06:10:03Z,42.805,6.029,13.2996,4.60052,2470.017,2019-10-30T08:10:30Z
2019-10-30T06:13:07Z,42.805,6.029,13.2998,4.60002,2470.03,2019-10-30T08:13:33Z
2019-10-30T06:16:10Z,42.805,6.029,13.3010,4.60017,2470.017,2019-10-30T08:16:36Z
2019-10-30T06:19:13Z,42.805,6.029,13.3027,4.60047,2470.053,2019-10-30T08:19:40Z
2019-10-30T06:22:16Z,42.805,6.029,13.3022,4.60015,2470.077,2019-10-30T08:22:43Z
2019-10-30T06:25:19Z,42.805,6.029,13.2993,4.60016,2470.04,2019-10-30T08:25:46Z
2019-10-30T06:28:22Z,42.805,6.029,13.3019,4.60016,2470.03,2019-10-30T08:28:49Z
2019-10-30T06:31:26Z,42.805,6.029,13.3020,4.60047,2470.04,2019-10-30T08:31:52Z
2019-10-30T06:34:29Z,42.805,6.029,13.2996,4.60035,2470.053,2019-10-30T08:34:56Z
2019-10-30T06:37:32Z,42.805,6.029,13.2996,4.60029,2470.007,2019-10-30T08:37:59Z
2019-10-30T06:40:35Z,42.805,6.029,13.2993,4.60057,2470.04,2019-10-30T08:41:02Z
2019-10-30T06:43:39Z,42.805,6.029,13.3004,4.60035,2470.053,2019-10-30T08:44:05Z
2019-10-30T06:46:42Z,42.805,6.029,13.2999,4.60024,2470.04,2019-10-30T08:47:08Z
2019-10-30T06:49:45Z,42.805,6.029,13.2986,4.60044,2470.063,2019-10-30T08:50:12Z
2019-10-30T06:52:48Z,42.805,6.029,13.3010,4.60053,2470.063,2019-10-30T08:53:15Z
2019-10-30T06:55:51Z,42.805,6.029,13.2999,4.60049,2470.077,2019-10-30T08:56:18Z
2019-10-30T06:58:55Z,42.805,6.029,13.3000,4.60021,2470.063,2019-10-30T08:59:21Z
2019-10-30T07:01:58Z,42.805,6.029,13.3036,4.60031,2470.063,2019-10-30T09:02:24Z
2019-10-30T07:05:01Z,42.805,6.029,13.3016,4.60046,2470.087,2019-10-30T09:05:28Z
2019-10-30T07:08:04Z,42.805,6.029,13.3031,4.60020,2470.1,2019-10-30T09:08:31Z
2019-10-30T07:11:07Z,42.805,6.029,13.3021,4.60042,2470.063,2019-10-30T09:11:34Z
2019-10-30T07:14:11Z,42.805,6.029,13.3023,4.60044,2470.077,2019-10-30T09:14:37Z
2019-10-30T07:17:14Z,42.805,6.029,13.3017,4.60031,2470.1,2019-10-30T09:17:40Z
2019-10-30T07:20:17Z,42.805,6.029,13.3000,4.60084,2470.087,2019-10-30T09:20:43Z
2019-10-30T07:23:20Z,42.805,6.029,13.3009,4.60027,2470.11,2019-10-30T09:23:47Z
2019-10-30T07:26:23Z,42.805,6.029,13.3028,4.60031,2470.087,2019-10-30T09:26:50Z
2019-10-30T07:29:27Z,42.805,6.029,13.3029,4.60060,2470.087,2019-10-30T09:29:53Z
2019-10-30T07:32:30Z,42.805,6.029,13.3019,4.60058,2470.063,2019-10-30T09:32:56Z
2019-10-30T07:35:33Z,42.805,6.029,13.3029,4.60026,2470.077,2019-10-30T09:35:59Z
2019-10-30T07:38:36Z,42.805,6.029,13.3026,4.60004,2470.124,2019-10-30T09:39:03Z
2019-10-30T07:41:39Z,42.805,6.029,13.3028,4.60059,2470.1,2019-10-30T09:42:06Z
2019-10-30T07:44:43Z,42.805,6.029,13.3031,4.60033,2470.063,2019-10-30T09:45:09Z
2019-10-30T07:47:46Z,42.805,6.029,13.3026,4.60020,2470.087,2019-10-30T09:48:12Z
2019-10-30T07:50:49Z,42.805,6.029,13.3021,4.60049,2470.124,2019-10-30T09:51:15Z
2019-10-30T07:53:52Z,42.805,6.029,13.3024,4.60005,2470.1,2019-10-30T09:54:19Z
2019-10-30T07:56:55Z,42.805,6.029,13.3006,4.60006,2470.087,2019-10-30T09:57:22Z
2019-10-30T07:59:59Z,42.805,6.029,13.3020,4.60015,2470.1,2019-10-30T10:00:25Z
2019-10-30T08:03:02Z,42.805,6.029,13.3010,4.60015,2470.1,2019-10-30T10:03:28Z
2019-10-30T08:06:05Z,42.805,6.029,13.2994,4.60029,2470.124,2019-10-30T10:06:31Z
2019-10-30T08:09:08Z,42.805,6.029,13.3004,4.60019,2470.11,2019-10-30T10:09:35Z
2019-10-30T08:12:11Z,42.805,6.029,13.2986,4.60043,2470.124,2019-10-30T10:12:38Z
2019-10-30T08:15:15Z,42.805,6.029,13.3006,4.60046,2470.124,2019-10-30T10:15:41Z
2019-10-30T08:18:18Z,42.805,6.029,13.3018,4.60012,2470.053,2019-10-30T10:18:44Z
2019-10-30T08:21:21Z,42.805,6.029,13.3031,4.60029,2470.133,2019-10-30T10:21:48Z
2019-10-30T08:24:24Z,42.805,6.029,13.3031,4.60014,2470.077,2019-10-30T10:24:51Z
2019-10-30T08:27:28Z,42.805,6.029,13.2990,4.59984,2470.11,2019-10-30T10:27:54Z
2019-10-30T08:30:31Z,42.805,6.029,13.3010,4.60000,2470.1,2019-10-30T10:30:57Z
2019-10-30T08:33:34Z,42.805,6.029,13.3013,4.60001,2470.077,2019-10-30T10:34:00Z
2019-10-30T08:36:37Z,42.805,6.029,13.3021,4.60052,2470.147,2019-10-30T10:37:04Z
2019-10-30T08:39:40Z,42.805,6.029,13.3021,4.60021,2470.11,2019-10-30T10:40:07Z
2019-10-30T08:42:44Z,42.805,6.029,13.3017,4.60010,2470.124,2019-10-30T10:43:10Z
2019-10-30T08:45:47Z,42.805,6.029,13.3027,4.60039,2470.1,2019-10-30T10:46:13Z
2019-10-30T08:48:50Z,42.805,6.029,13.3031,4.60069,2470.087,2019-10-30T10:49:17Z
2019-10-30T08:51:53Z,42.805,6.029,13.3014,4.60049,2470.11,2019-10-30T10:52:20Z
2019-10-30T08:54:56Z,42.805,6.029,13.3035,4.60036,2470.1,2019-10-30T10:55:23Z
2019-10-30T08:58:00Z,42.805,6.029,13.3020,4.60017,2470.087,2019-10-30T10:58:26Z
2019-10-30T09:01:03Z,42.805,6.029,13.3042,4.60035,2470.1,2019-10-30T11:01:29Z
2019-10-30T09:04:06Z,42.805,6.029,13.2994,4.60049,2470.1,2019-10-30T11:04:33Z
2019-10-30T09:07:09Z,42.805,6.029,13.3038,4.60029,2470.11,2019-10-30T11:07:36Z
2019-10-30T09:10:12Z,42.805,6.029,13.3036,4.60036,2470.124,2019-10-30T11:10:39Z
2019-10-30T09:13:16Z,42.805,6.029,13.3039,4.60073,2470.124,2019-10-30T11:13:42Z
2019-10-30T09:16:19Z,42.805,6.029,13.3035,4.60062,2470.1,2019-10-30T11:16:45Z
2019-10-30T09:19:22Z,42.805,6.029,13.3012,4.60162,2470.11,2019-10-30T11:19:49Z
2019-10-30T09:22:25Z,42.805,6.029,13.3018,4.60063,2470.124,2019-10-30T11:22:52Z
2019-10-30T09:25:29Z,42.805,6.029,13.2995,4.60009,2470.11,2019-10-30T11:25:55Z
2019-10-30T09:28:32Z,42.805,6.029,13.3023,4.60025,2470.11,2019-10-30T11:28:58Z
2019-10-30T09:31:35Z,42.805,6.029,13.3024,4.60058,2470.087,2019-10-30T11:32:01Z
2019-10-30T09:34:38Z,42.805,6.029,13.3031,4.60021,2470.11,2019-10-30T11:35:05Z
2019-10-30T09:37:41Z,42.805,6.029,13.3021,4.60016,2470.11,2019-10-30T11:38:08Z
2019-10-30T09:40:44Z,42.805,6.029,13.3014,4.60017,2470.11,2019-10-30T11:41:11Z
2019-10-30T09:43:48Z,42.805,6.029,13.3029,4.60044,2470.077,2019-10-30T11:44:14Z
2019-10-30T09:46:51Z,42.805,6.029,13.3000,4.60026,2470.124,2019-10-30T11:47:17Z
2019-10-30T09:49:54Z,42.805,6.029,13.3019,4.60026,2470.063,2019-10-30T11:50:21Z
2019-10-30T09:52:57Z,42.805,6.029,13.2998,4.60049,2470.1,2019-10-30T11:53:24Z
2019-10-30T09:56:00Z,42.805,6.029,13.2991,4.60048,2470.063,2019-10-30T11:56:27Z
2019-10-30T09:59:04Z,42.805,6.029,13.3025,4.60021,2470.063,2019-10-30T11:59:30Z
2019-10-30T10:02:07Z,42.805,6.029,13.3016,4.60040,2470.063,2019-10-30T12:02:34Z
2019-10-30T10:05:10Z,42.805,6.029,13.3026,4.60040,2470.077,2019-10-30T12:05:37Z
2019-10-30T10:08:13Z,42.805,6.029,13.3006,4.60036,2470.087,2019-10-30T12:08:40Z
2019-10-30T10:11:17Z,42.805,6.029,13.3027,4.60020,2470.053,2019-10-30T12:11:43Z
2019-10-30T10:14:20Z,42.805,6.029,13.3014,4.60023,2470.063,2019-10-30T12:14:46Z
2019-10-30T10:17:23Z,42.805,6.029,13.3038,4.60020,2470.087,2019-10-30T12:17:50Z
2019-10-30T10:20:26Z,42.805,6.029,13.3034,4.60026,2470.063,2019-10-30T12:20:53Z
2019-10-30T10:23:29Z,42.805,6.029,13.2996,4.60011,2470.04,2019-10-30T12:23:56Z
2019-10-30T10:26:33Z,42.805,6.029,13.3025,4.60011,2470.077,2019-10-30T12:26:59Z
2019-10-30T10:29:36Z,42.805,6.029,13.3029,4.60007,2470.04,2019-10-30T12:30:02Z
2019-10-30T10:32:39Z,42.805,6.029,13.3022,4.60048,2470.077,2019-10-30T12:33:06Z
2019-10-30T10:35:42Z,42.805,6.029,13.3033,4.60004,2470.087,2019-10-30T12:36:09Z
2019-10-30T10:38:46Z,42.805,6.029,13.2998,4.60049,2470.053,2019-10-30T12:39:12Z
2019-10-30T10:41:49Z,42.805,6.029,13.3006,4.60038,2470.087,2019-10-30T12:42:15Z
2019-10-30T10:44:52Z,42.805,6.029,13.3009,4.60033,2470.04,2019-10-30T12:45:18Z
2019-10-30T10:47:55Z,42.805,6.029,13.3009,4.60027,2470.04,2019-10-30T12:48:22Z
2019-10-30T10:50:58Z,42.805,6.029,13.2999,4.60033,2470.053,2019-10-30T12:51:25Z
2019-10-30T10:54:02Z,42.805,6.029,13.2997,4.60012,2470.026,2019-10-30T12:54:28Z
2019-10-30T10:57:05Z,42.805,6.029,13.2976,4.60013,2470.03,2019-10-30T12:57:31Z
2019-10-30T11:00:08Z,42.805,6.029,13.2987,4.60019,2470.04,2019-10-30T13:00:35Z
2019-10-30T11:03:11Z,42.805,6.029,13.2982,4.60047,2470.053,2019-10-30T13:03:38Z
2019-10-30T11:06:14Z,42.805,6.029,13.3004,4.60041,2470.017,2019-10-30T13:06:41Z
2019-10-30T11:09:18Z,42.805,6.029,13.3017,4.60036,2470.03,2019-10-30T13:09:44Z
2019-10-30T11:12:21Z,42.805,6.029,13.2994,4.60058,2470.007,2019-10-30T13:12:47Z
2019-10-30T11:15:24Z,42.805,6.029,13.2968,4.60045,2470.03,2019-10-30T13:15:51Z
2019-10-30T11:18:27Z,42.805,6.029,13.3008,4.60033,2470.03,2019-10-30T13:18:54Z
2019-10-30T11:21:30Z,42.805,6.029,13.2986,4.60040,2470.007,2019-10-30T13:21:57Z
2019-10-30T11:24:34Z,42.805,6.029,13.2995,4.60051,2470.017,2019-10-30T13:25:00Z
2019-10-30T11:27:37Z,42.805,6.029,13.2998,4.60019,2470.007,2019-10-30T13:28:03Z
2019-10-30T11:30:40Z,42.805,6.029,13.3017,4.60022,2470.03,2019-10-30T13:31:07Z
2019-10-30T11:33:43Z,42.805,6.029,13.2998,4.60029,2469.993,2019-10-30T13:34:10Z
2019-10-30T11:36:47Z,42.805,6.029,13.3014,4.59995,2470.017,2019-10-30T13:37:13Z
2019-10-30T11:39:50Z,42.805,6.029,13.2983,4.60007,2470.03,2019-10-30T13:40:16Z
2019-10-30T11:42:53Z,42.805,6.029,13.3000,4.60033,2470.017,2019-10-30T13:43:19Z
2019-10-30T11:45:56Z,42.805,6.029,13.2991,4.60014,2469.993,2019-10-30T13:46:23Z
2019-10-30T11:48:59Z,42.805,6.029,13.3007,4.60022,2469.993,2019-10-30T13:49:26Z
2019-10-30T11:52:03Z,42.805,6.029,13.3011,4.60030,2470.007,2019-10-30T13:52:29Z
2019-10-30T11:55:06Z,42.805,6.029,13.3000,4.60031,2469.97,2019-10-30T13:55:32Z
2019-10-30T11:58:09Z,42.805,6.029,13.3026,4.60014,2469.984,2019-10-30T13:58:36Z
2019-10-30T12:01:12Z,42.805,6.029,13.3015,4.60066,2470.007,2019-10-30T14:01:39Z
2019-10-30T12:04:15Z,42.805,6.029,13.3034,4.60003,2470.007,2019-10-30T14:04:42Z
2019-10-30T12:07:19Z,42.805,6.029,13.3008,4.59993,2469.993,2019-10-30T14:07:45Z
2019-10-30T12:10:22Z,42.805,6.029,13.3004,4.59989,2470.007,2019-10-30T14:10:48Z
2019-10-30T12:13:25Z,42.805,6.029,13.3008,4.60014,2470.017,2019-10-30T14:13:52Z
2019-10-30T12:16:28Z,42.805,6.029,13.2979,4.60042,2469.984,2019-10-30T14:16:55Z
2019-10-30T12:19:31Z,42.805,6.029,13.2996,4.60043,2469.984,2019-10-30T14:19:58Z
2019-10-30T12:22:35Z,42.805,6.029,13.3000,4.59999,2470.007,2019-10-30T14:23:01Z
2019-10-30T12:25:38Z,42.805,6.029,13.2990,4.60007,2469.923,2019-10-30T14:26:04Z
2019-10-30T12:28:41Z,42.805,6.029,13.2993,4.60009,2469.984,2019-10-30T14:29:08Z
2019-10-30T12:31:45Z,42.805,6.029,13.2982,4.60034,2469.984,2019-10-30T14:32:11Z
2019-10-30T12:34:48Z,42.805,6.029,13.2975,4.60051,2470.007,2019-10-30T14:35:14Z
2019-10-30T12:37:51Z,42.805,6.029,13.2971,4.60044,2469.97,2019-10-30T14:38:17Z
2019-10-30T12:40:54Z,42.805,6.029,13.2983,4.60026,2469.97,2019-10-30T14:41:21Z
2019-10-30T12:43:57Z,42.805,6.029,13.2979,4.60026,2469.984,2019-10-30T14:44:24Z
2019-10-30T12:47:01Z,42.805,6.029,13.2971,4.60039,2469.947,2019-10-30T14:47:27Z
2019-10-30T12:50:04Z,42.805,6.029,13.3007,4.60043,2469.96,2019-10-30T14:50:30Z
2019-10-30T12:53:07Z,42.805,6.029,13.2996,4.60052,2469.984,2019-10-30T14:53:33Z
2019-10-30T12:56:10Z,42.805,6.029,13.3015,4.60024,2469.947,2019-10-30T14:56:37Z
2019-10-30T12:59:13Z,42.805,6.029,13.3014,4.60029,2469.923,2019-10-30T14:59:40Z
2019-10-30T13:02:17Z,42.805,6.029,13.2986,4.60022,2469.947,2019-10-30T15:02:43Z
2019-10-30T13:05:20Z,42.805,6.029,13.3005,4.60038,2469.96,2019-10-30T15:05:46Z
2019-10-30T13:08:23Z,42.805,6.029,13.3009,4.60036,2469.96,2019-10-30T15:08:50Z
2019-10-30T13:11:26Z,42.805,6.029,13.3001,4.60014,2469.923,2019-10-30T15:11:53Z
2019-10-30T13:14:30Z,42.805,6.029,13.2996,4.60042,2469.914,2019-10-30T15:14:56Z
2019-10-30T13:17:33Z,42.805,6.029,13.2978,4.60054,2469.97,2019-10-30T15:17:59Z
2019-10-30T13:20:36Z,42.805,6.029,13.2981,4.60016,2469.914,2019-10-30T15:21:02Z
2019-10-30T13:23:39Z,42.805,6.029,13.3000,4.60016,2469.937,2019-10-30T15:24:06Z
2019-10-30T13:26:43Z,42.805,6.029,13.2968,4.60004,2469.96,2019-10-30T15:27:09Z
2019-10-30T13:29:46Z,42.805,6.029,13.2996,4.59991,2469.9,2019-10-30T15:30:12Z
2019-10-30T13:32:49Z,42.805,6.029,13.2989,4.60038,2469.937,2019-10-30T15:33:16Z
2019-10-30T13:35:52Z,42.805,6.029,13.2974,4.60035,2469.937,2019-10-30T15:36:19Z
2019-10-30T13:38:55Z,42.805,6.029,13.2979,4.60031,2469.914,2019-10-30T15:39:22Z
2019-10-30T13:41:59Z,42.805,6.029,13.2979,4.60046,2469.937,2019-10-30T15:42:25Z
2019-10-30T13:45:02Z,42.805,6.029,13.2974,4.60051,2469.914,2019-10-30T15:45:28Z
2019-10-30T13:48:05Z,42.805,6.029,13.2982,4.60064,2469.937,2019-10-30T15:48:32Z
2019-10-30T13:51:08Z,42.805,6.029,13.2985,4.60016,2469.937,2019-10-30T15:51:35Z
2019-10-30T13:54:11Z,42.805,6.029,13.2982,4.60052,2469.9,2019-10-30T15:54:38Z
2019-10-30T13:57:15Z,42.805,6.029,13.2992,4.59992,2469.927,2019-10-30T15:57:41Z
2019-10-30T14:00:18Z,42.805,6.029,13.2975,4.60006,2469.937,2019-10-30T16:00:44Z
2019-10-30T14:03:21Z,42.805,6.029,13.2976,4.60017,2469.914,2019-10-30T16:03:48Z
2019-10-30T14:06:24Z,42.805,6.029,13.2976,4.60051,2469.923,2019-10-30T16:06:51Z
2019-10-30T14:09:27Z,42.805,6.029,13.2970,4.60062,2469.914,2019-10-30T16:09:54Z
2019-10-30T14:12:31Z,42.805,6.029,13.2971,4.60042,2469.937,2019-10-30T16:12:57Z
2019-10-30T14:15:34Z,42.805,6.029,13.2972,4.60046,2469.9,2019-10-30T16:16:00Z
2019-10-30T14:18:37Z,42.805,6.029,13.2968,4.60033,2469.876,2019-10-30T16:19:04Z
2019-10-30T14:21:40Z,42.805,6.029,13.2984,4.60026,2469.9,2019-10-30T16:22:07Z
2019-10-30T14:24:44Z,42.805,6.029,13.2979,4.59996,2469.914,2019-10-30T16:25:10Z
2019-10-30T14:27:47Z,42.805,6.029,13.2981,4.60029,2469.9,2019-10-30T16:28:13Z
2019-10-30T14:30:50Z,42.805,6.029,13.2996,4.60026,2469.914,2019-10-30T16:31:16Z
2019-10-30T14:33:53Z,42.805,6.029,13.2972,4.60025,2469.9,2019-10-30T16:34:20Z
2019-10-30T14:36:56Z,42.805,6.029,13.2978,4.60021,2469.89,2019-10-30T16:37:23Z
2019-10-30T14:40:00Z,42.805,6.029,13.2980,4.60031,2469.914,2019-10-30T16:40:26Z
2019-10-30T14:43:03Z,42.805,6.029,13.2979,4.60029,2469.876,2019-10-30T16:43:29Z
2019-10-30T14:46:06Z,42.805,6.029,13.2972,4.60024,2469.914,2019-10-30T16:46:33Z
2019-10-30T14:49:09Z,42.805,6.029,13.2976,4.60011,2469.844,2019-10-30T16:49:36Z
2019-10-30T14:52:12Z,42.805,6.029,13.2983,4.60020,2469.9,2019-10-30T16:52:39Z
2019-10-30T14:55:16Z,42.805,6.029,13.2969,4.60007,2469.89,2019-10-30T16:55:42Z
2019-10-30T14:58:19Z,42.805,6.029,13.2971,4.60009,2469.89,2019-10-30T16:58:45Z
2019-10-30T15:01:22Z,42.805,6.029,13.2973,4.60015,2469.9,2019-10-30T17:01:49Z